Showing default

COSMOS 2213, 22184

Orbit data source: Space-Track

COSMOS 2213, 22184 is a payload satellite owned by VKS (CIS) in LEO that was launched on Tue, 20 Oct 1992 UTC via a TSIKLON-3 launch vehicle from the Plesetsk Missile And Space Complex (PKMTR). Payload-class satellites include a variety of spacecraft equipped with specific instruments for various scientific and technological missions. These include communications satellites like Starlink; space stations such as the ISS; scientific satellites like the Hubble; Earth observation satellites from companies like Planet Labs, Umbra, and HawkEye 360; GPS; miniature CubeSats for education and research; and military/defense satellites.

Loading next visibility...
Identifier
22184, 1992-068C
Orbit
LEO
Country
Flag of CISCIS
Related business
Manufacturer
NPO PM
Mission
Defense Communications
Bus & Motor
STRELA-3, Unknown motor
Mass
225 kg wet, 225 kg dry
Launch date (UTC)
1992-10-20 (33 years ago)
Launch vehicle
TSIKLON-3
Launch site
Plesetsk Missile And Space Complex (PKMTR)
Object type
Payload
Rocket body
Debris
Shape & HBR
Cyl, 0.8 m
Radar Cross Section
1.257 m², Large (>1 m²)

Expand to show TLE details & history
Last TLE update: 15 hours ago

TLE from 15 hours ago
0 COSMOS 2213
1 22184U 92068C   25340.61474789  .00000030  00000-0  10752-3 0  9993
2 22184  82.5987 109.6243 0002989 192.1435 179.0540 12.62606134526657
Epoch: 2025-12-06T14:45Z
TLE epoch observation values (Epoch: 2025-12-06T14:45:14.217Z)
Latitude
11.05831°
Longitude
174.12267°
Altitude
1,416.517 km
Speed
7.152 km/s
True Right ascension
07h 24m 17s
True Declination
10° 59' 57"
Sunlit
Object was in full shadow at epoch
Visualization orbit readout
Latitude
Unknown
Longitude
Unknown
Altitude
Unknown
Speed
Unknown
Apparent Right ascension
Unknown
Apparent Declination
Unknown
Sunlit
N/A
Visualization observer readout
Local Sidereal Time
03:44:41
Azimuth
Unknown
Elevation
Unknown
Doppler factor
Unknown
Orbital elements
Apogee altitude
1,411.853 km
Perigee altitude
1,407.198 km
Semi-major axis
7,787.662 km
Eccentricity
0.0003
Inclination
82.5987°
RAAN
109.6243°
Arg. of periapsis
192.1435°
True anomaly
179.05457°
Mean anomaly
179.054°
Eccentric anomaly
179.05428°
Mean motion
3.15815 °/min
Orbital period
113.99 mins
BSTAR
0.00010752
Loading maneuver chart data...
Computing Atmospheric mass density...
Loading historical data...
Loading historical data...
Loading historical data...
Loading historical data...
Loading historical data...
Loading historical data...
Loading historical data...

Documentation

Showing up to 5 results
|